Location: Silent Lake
(44.9206°N, 78.0708°W)
Time: 11:16:53
(UTC-04:00)

DMSP B5D2-2 - Pass Details

Date: 19 April 2018
Orbit: 791 x 806 km, 98.4° (Epoch: 19 September)

Event Time Altitude Azimuth Distance (km) Brightness Sun altitude
Rises 22:10:05 0° 18° (NNE) 3,312 7.6 -20.4°
Reaches altitude 10° 22:12:31 10° 25° (NNE) 2,380 6.7 -20.7°
Maximum altitude 22:17:36 48° 99° (E) 1,043 4.3 -21.3°
Enters shadow 22:18:09 46° 119° (ESE) 1,069 4.3 -21.4°
